Weather History for CWLY - March, 2014

Change the Weather History Date:

Friday, March 14, 2014

  Actual Average Record
Temperature  
Mean Temperature 52 °F -  
Max Temperature 60 °F 46 °F 61 °F (2013)
Min Temperature 44 °F 31 °F 21 °F (1997)
Degree Days  
Heating Degree Days 13    
Growing Degree Days 2 (Base 50)    
Moisture  
Dew Point 35 °F    
Average Humidity 60    
Maximum Humidity 76    
Minimum Humidity 27    
Precipitation  
Precipitation 0.00 in - - ()
Sea Level Pressure  
Sea Level Pressure 29.88 in    
Wind  
Wind Speed 16 mph ()    
Max Wind Speed 24 mph    
Max Gust Speed 37 mph    
Visibility 9.0 miles    
Events Rain    
Averages and records for this station are not official NWS values.
T = Trace of Precipitation, MM = Missing Value Source: Averaged Metar Reports

Daily Weather History Graph

Daily Weather History Graph

Search for Another Location

Airport or City:

Trip Planner

Search our weather history database for the weather conditions in past years. The results will help you decide how hot, cold, wet, or windy it might be!

Date:

Astronomy

Mar. 14, 2014 Rise Set
Actual Time 7:21 AM PDT 7:09 PM PDT
Civil Twilight 6:49 AM PDT 7:42 PM PDT
Nautical Twilight 6:11 AM PDT 8:20 PM PDT
Astronomical Twilight 5:33 AM PDT 8:59 PM PDT
Moon 5:30 PM PDT (3/14) 6:13 AM PDT (3/14)
Length of Visible Light 12h 52m
Length of Day
11h 48m
Waxing Gibbous, 96% of the Moon is Illuminated
Mar 14
Waxing Gibbous
Mar 16
Full
Mar 23
Last Quarter
Mar 30
New
Apr 7
First Quarter

Hourly Weather History & Observations

Time (PDT) Temp. Windchill Dew Point Humidity Pressure Visibility Wind Dir Wind Speed Gust Speed Precip Events Conditions
12:00 AM 50.0 °F - 30.2 °F 47% 29.86 in 9.0 mi SSW 10.4 mph 27.6 mph N/A   Scattered Clouds
1:00 AM 48.2 °F - 33.8 °F 58% 29.84 in 9.0 mi SW 12.7 mph 29.9 mph N/A   Overcast
2:00 AM 48.2 °F - 35.6 °F 62% 29.82 in 9.0 mi SSW 18.4 mph 31.1 mph N/A   Overcast
3:00 AM 48.2 °F - 35.6 °F 62% 29.79 in 9.0 mi Variable 17.3 mph 34.5 mph N/A   Overcast
4:00 AM 46.4 °F 39.0 °F 37.4 °F 71% 29.77 in 9.0 mi SSW 19.6 mph 31.1 mph N/A   Overcast
5:00 AM 46.4 °F 39.2 °F 37.4 °F 71% 29.76 in 9.0 mi SSW 18.4 mph 29.9 mph N/A   Mostly Cloudy
6:00 AM 46.4 °F 39.0 °F 37.4 °F 71% 29.76 in 9.0 mi SSW 19.6 mph 32.2 mph N/A   Overcast
6:46 AM 44.6 °F 37.2 °F 37.4 °F 76% 29.78 in 9.0 mi SSW 17.3 mph 29.9 mph N/A Rain Light Rain
7:00 AM 44.6 °F 36.4 °F 37.4 °F 76% 29.78 in 9.0 mi South 20.7 mph 31.1 mph N/A Rain Light Rain
7:02 AM 44.6 °F 35.9 °F 37.4 °F 76% 29.78 in 9.0 mi South 23.0 mph 31.1 mph N/A   Mostly Cloudy
8:00 AM 44.6 °F 36.1 °F 37.4 °F 76% 29.77 in 9.0 mi SSW 21.9 mph 32.2 mph N/A   Scattered Clouds
8:35 AM 44.6 °F 37.8 °F 37.4 °F 76% 29.79 in 9.0 mi SSW 15.0 mph 28.8 mph N/A Rain Light Rain
8:57 AM 44.6 °F 36.6 °F 37.4 °F 76% 29.81 in 9.0 mi SSW 19.6 mph 27.6 mph N/A   Overcast
9:00 AM 44.6 °F 36.1 °F 37.4 °F 76% 29.79 in 9.0 mi SSW 21.9 mph 29.9 mph N/A   Overcast
9:10 AM 44.6 °F 37.4 °F 37.4 °F 76% 29.76 in 9.0 mi South 16.1 mph 29.9 mph N/A Rain Light Rain
9:22 AM 44.6 °F 36.4 °F 37.4 °F 76% 29.77 in 9.0 mi South 20.7 mph 28.8 mph N/A   Scattered Clouds
10:00 AM 46.4 °F 38.1 °F 37.4 °F 71% 29.79 in 9.0 mi South 24.2 mph 34.5 mph N/A   Clear
11:00 AM 48.2 °F - 37.4 °F 66% 29.79 in 9.0 mi SSW 20.7 mph 36.8 mph N/A   Clear
12:00 PM 53.6 °F - 37.4 °F 54% 29.81 in 9.0 mi South 21.9 mph 35.7 mph N/A   Mostly Cloudy
1:00 PM 55.4 °F - 35.6 °F 47% 29.83 in 9.0 mi SSW 24.2 mph 35.7 mph N/A   Mostly Cloudy
2:00 PM 59.0 °F - 28.4 °F 31% 29.86 in 9.0 mi South 24.2 mph 31.1 mph N/A   Scattered Clouds
3:00 PM 60.8 °F - 26.6 °F 27% 29.88 in 9.0 mi South 20.7 mph 29.9 mph N/A   Mostly Cloudy
4:00 PM 59.0 °F - 26.6 °F 29% 29.91 in 9.0 mi South 15.0 mph 25.3 mph N/A   Mostly Cloudy
5:00 PM 57.2 °F - 28.4 °F 33% 29.94 in 9.0 mi SSW 6.9 mph 21.9 mph N/A   Mostly Cloudy
5:03 PM 57.2 °F - 28.4 °F 33% 29.94 in 9.0 mi SSW 20.7 mph 29.9 mph N/A   Mostly Cloudy
6:00 PM 53.6 °F - 32.0 °F 44% 30.00 in 9.0 mi SW 8.1 mph 24.2 mph N/A   Mostly Cloudy
7:00 PM 50.0 °F - 33.8 °F 54% 30.04 in 9.0 mi SW 11.5 mph 31.1 mph N/A   Scattered Clouds
7:37 PM 50.0 °F - 35.6 °F 58% 30.07 in 9.0 mi SSW 24.2 mph 32.2 mph N/A   Clear
8:00 PM 48.2 °F - 35.6 °F 62% 30.08 in 9.0 mi South 16.1 mph 34.5 mph N/A   Clear
9:00 PM 48.2 °F - 35.6 °F 62% 30.12 in 9.0 mi SSW 13.8 mph 29.9 mph N/A   Clear
10:00 PM 48.2 °F - 35.6 °F 62% 30.15 in 9.0 mi SSW 15.0 mph 23.0 mph N/A   Clear
11:00 PM 46.4 °F 40.1 °F 35.6 °F 66% 30.17 in 9.0 mi SW 15.0 mph 26.5 mph N/A   Clear